KC5DP Weather Reports


time (UTC)temp
C
wind
direction
speed
KPH
gust
KPH
rain 1hr
cm
rain 24hr
cm
rain mn
cm
humidity
%
barometer
mb
20260504214741 24 113 0.0 0.0 0.00 0.00 0.00 52 1013.6
20260504214238 24 140 0.0 0.0 0.00 0.00 0.00 50 1013.3
20260504213735 25 70 3.2 3.2 0.00 0.00 0.00 49 1013.4
20260504213231 25 99 1.6 3.2 0.00 0.00 0.00 48 1013.5
20260504212729 24 130 3.2 6.4 0.00 0.00 0.00 48 1013.5
20260504212225 25 137 4.8 4.8 0.00 0.00 0.00 48 1013.5
20260504211723 25 69 1.6 4.8 0.00 0.00 0.00 45 1013.8
20260504211219 25 69 1.6 4.8 0.00 0.00 0.00 45 1013.8
20260504210716 25 178 1.6 3.2 0.00 0.00 0.00 47 1013.8
20260504210213 25 114 1.6 3.2 0.00 0.00 0.00 48 1014.0
20260504205710 25 114 1.6 3.2 0.00 0.00 0.00 48 1014.0
20260504205208 25 112 0.0 1.6 0.00 0.00 0.00 47 1013.9
20260504204706 25 107 0.0 0.0 0.00 0.00 0.00 45 1013.9
20260504204204 25 121 0.0 0.0 0.00 0.00 0.00 45 1014.1
20260504203703 25 118 0.0 1.6 0.00 0.00 0.00 44 1014.1
20260504203200 25 168 1.6 1.6 0.00 0.00 0.00 45 1014.2
20260504202700 25 127 1.6 1.6 0.00 0.00 0.00 44 1014.1
20260504202158 25 127 1.6 1.6 0.00 0.00 0.00 44 1014.1
20260504201654 25 140 3.2 3.2 0.00 0.00 0.00 44 1014.3
20260504201117 25 117 1.6 1.6 0.00 0.00 0.00 44 1014.6
20260504200614 25 117 1.6 1.6 0.00 0.00 0.00 44 1014.6
20260504200110 25 150 1.6 3.2 0.00 0.00 0.00 47 1014.6
20260504195606 26 82 3.2 4.8 0.00 0.00 0.00 43 1014.7
20260504194402 25 122 0.0 0.0 0.00 0.00 0.00 45 1015.1
20260504193859 25 122 0.0 0.0 0.00 0.00 0.00 45 1015.1
20260504193356 25 72 0.0 0.0 0.00 0.00 0.00 43 1015.1
20260504192855 25 151 0.0 1.6 0.00 0.00 0.00 49 1015.1
20260504192352 25 140 3.2 3.2 0.00 0.00 0.00 47 1015.5
20260504191850 25 83 3.2 4.8 0.00 0.00 0.00 46 1015.5
20260504191348 25 124 4.8 4.8 0.00 0.00 0.00 44 1015.2
20260504190843 25 107 4.8 6.4 0.00 0.00 0.00 46 1015.4
20260504190339 25 44 3.2 3.2 0.00 0.00 0.00 46 1015.4
20260504185836 25 32 3.2 4.8 0.00 0.00 0.00 48 1015.3
20260504185333 25 96 6.4 11.3 0.00 0.00 0.00 44 1015.5
20260504184829 25 141 1.6 3.2 0.00 0.00 0.00 47 1015.6
20260504184325 25 86 3.2 4.8 0.00 0.00 0.00 46 1015.8
20260504183821 25 156 3.2 4.8 0.00 0.00 0.00 43 1015.8
20260504183318 25 91 1.6 1.6 0.00 0.00 0.00 47 1015.9
20260504182816 25 121 3.2 4.8 0.00 0.00 0.00 44 1016.1
20260504182313 25 113 1.6 1.6 0.00 0.00 0.00 47 1016.0
20260504181810 25 122 1.6 1.6 0.00 0.00 0.00 44 1016.1
20260504181308 25 136 1.6 3.2 0.00 0.00 0.00 47 1016.3
20260504180807 25 3 6.4 11.3 0.00 0.00 0.00 42 1016.3
20260504180305 25 251 3.2 3.2 0.00 0.00 0.00 42 1016.2
20260504175802 25 124 0.0 0.0 0.00 0.00 0.00 42 1016.2
20260504175259 25 117 0.0 0.0 0.00 0.00 0.00 43 1016.3
20260504174757 25 173 3.2 3.2 0.00 0.00 0.00 42 1016.3
20260504174255 25 29 3.2 4.8 0.00 0.00 0.00 40 1016.3
20260504173751 25 189 1.6 3.2 0.00 0.00 0.00 43 1016.3
20260504173248 25 122 1.6 3.2 0.00 0.00 0.00 44 1016.7
20260504172744 25 113 1.6 1.6 0.00 0.00 0.00 40 1016.5
20260504172241 25 124 0.0 0.0 0.00 0.00 0.00 42 1016.5
20260504171737 25 124 0.0 0.0 0.00 0.00 0.00 42 1016.5
20260504171234 25 176 1.6 3.2 0.00 0.00 0.00 44 1016.5
20260504170732 24 76 1.6 1.6 0.00 0.00 0.00 42 1016.5
20260504170228 24 162 0.0 1.6 0.00 0.00 0.00 45 1016.2
20260504160118 24 78 1.6 1.6 0.00 0.00 0.00 43 1017.1
20260504150946 23 126 1.6 1.6 0.00 0.00 0.00 52 1017.1
20260504150443 23 106 0.0 0.0 0.00 0.00 0.00 56 1017.5
20260504140910 21 103 0.0 0.0 0.00 0.00 0.00 67 1017.4
20260504140406 20 109 0.0 0.0 0.00 0.00 0.00 66 1017.2
20260504130331 15 98 0.0 0.0 0.00 0.00 0.00 88 1017.5
20260504120254 10 94 0.0 0.0 0.00 0.00 0.00 99 1017.2
20260504110218 9 106 0.0 0.0 0.00 0.00 0.00 99 1016.7
20260504100142 10 106 0.0 0.0 0.00 0.00 0.00 99 1016.7
20260504090104 10 109 0.0 0.0 0.00 0.00 0.00 99 1016.8
20260504081535 10 101 0.0 0.0 0.00 0.00 0.00 99 1016.8
20260504081030 10 101 0.0 0.0 0.00 0.00 0.00 99 1016.8
20260504080527 10 101 0.0 0.0 0.00 0.00 0.00 99 1016.9
20260504050341 12 106 0.0 0.0 0.00 0.00 0.00 97 1018.0
20260504045838 12 105 0.0 0.0 0.00 0.00 0.00 97 1018.3
20260504045338 12 106 0.0 0.0 0.00 0.00 0.00 97 1018.2
20260504044835 12 106 0.0 0.0 0.00 0.00 0.00 97 1018.2
20260504044332 12 106 0.0 0.0 0.00 0.00 0.00 97 1018.2
20260504043830 12 106 0.0 0.0 0.00 0.00 0.00 97 1018.2
20260504043326 12 106 0.0 0.0 0.00 0.00 0.00 97 1018.3
20260504042824 12 106 0.0 0.0 0.00 0.00 0.00 97 1018.3
20260504042320 12 106 0.0 0.0 0.00 0.00 0.00 96 1018.4
20260504041816 12 106 0.0 0.0 0.00 0.00 0.00 96 1018.2
20260504041312 12 106 0.0 0.0 0.00 0.00 0.00 96 1018.3
20260504040809 12 106 0.0 0.0 0.00 0.00 0.00 96 1018.5
20260504040307 12 106 0.0 0.0 0.00 0.00 0.00 96 1018.4
20260504035802 13 106 0.0 0.0 0.00 0.00 0.00 96 1018.3
20260504035300 13 106 0.0 0.0 0.00 0.00 0.00 95 1018.6
20260504034757 13 106 0.0 0.0 0.00 0.00 0.00 95 1018.4
20260504034254 13 106 0.0 0.0 0.00 0.00 0.00 95 1018.3
20260504033751 13 106 0.0 0.0 0.00 0.00 0.00 94 1018.3
20260504033249 13 106 0.0 0.0 0.00 0.00 0.00 94 1018.3
20260504032745 13 106 0.0 0.0 0.00 0.00 0.00 94 1018.3
20260504032243 13 100 0.0 0.0 0.00 0.00 0.00 93 1018.4
20260504031739 13 95 0.0 0.0 0.00 0.00 0.00 93 1018.2
20260504031237 13 111 0.0 0.0 0.00 0.00 0.00 93 1018.3
20260504030732 13 111 0.0 0.0 0.00 0.00 0.00 92 1018.3
20260504030230 13 111 0.0 0.0 0.00 0.00 0.00 91 1018.4
20260504025726 13 114 0.0 0.0 0.00 0.00 0.00 92 1018.0
20260504025223 13 115 0.0 0.0 0.00 0.00 0.00 91 1018.2
20260504024720 14 116 0.0 0.0 0.00 0.00 0.00 91 1017.9
20260504024217 14 118 0.0 0.0 0.00 0.00 0.00 90 1018.0
20260504023714 14 121 0.0 0.0 0.00 0.00 0.00 90 1018.0
20260504023209 14 108 0.0 0.0 0.00 0.00 0.00 90 1017.9
20260504022706 14 115 0.0 0.0 0.00 0.00 0.00 90 1017.9
20260504022202 15 115 0.0 0.0 0.00 0.00 0.00 88 1017.9
20260504021700 15 115 0.0 0.0 0.00 0.00 0.00 88 1017.8
20260504021156 15 115 0.0 0.0 0.00 0.00 0.00 87 1017.8
20260504020653 15 115 0.0 0.0 0.00 0.00 0.00 86 1017.7
20260504020149 15 115 0.0 0.0 0.00 0.00 0.00 85 1017.6
20260504015646 15 115 0.0 0.0 0.00 0.00 0.00 83 1017.7
20260504015142 15 115 0.0 0.0 0.00 0.00 0.00 84 1017.4
20260504014638 15 115 0.0 0.0 0.00 0.00 0.00 83 1017.2
20260504014136 15 115 0.0 0.0 0.00 0.00 0.00 82 1017.2
20260504013633 16 115 0.0 0.0 0.00 0.00 0.00 80 1017.3
20260504013130 16 115 0.0 0.0 0.00 0.00 0.00 80 1017.1
20260504012627 16 116 0.0 0.0 0.00 0.00 0.00 76 1017.1
20260504012125 16 116 0.0 0.0 0.00 0.00 0.00 77 1017.2
20260504011622 16 116 0.0 0.0 0.00 0.00 0.00 75 1017.1
20260504011118 17 116 0.0 0.0 0.00 0.00 0.00 73 1016.9
20260504010614 17 116 0.0 0.0 0.00 0.00 0.00 71 1017.1
20260504010110 17 116 0.0 0.0 0.00 0.00 0.00 70 1017.0
20260504005607 17 116 0.0 0.0 0.00 0.00 0.00 70 1017.0
20260504005104 18 116 0.0 0.0 0.00 0.00 0.00 69 1016.8
20260504004602 18 116 0.0 0.0 0.00 0.00 0.00 66 1017.0
20260504004059 18 116 0.0 0.0 0.00 0.00 0.00 68 1016.9
20260504002803 20 117 0.0 0.0 0.00 0.00 0.00 58 1016.9
20260504002300 20 117 0.0 0.0 0.00 0.00 0.00 58 1016.9
20260504001758 20 117 0.0 0.0 0.00 0.00 0.00 56 1016.9
20260504001254 21 117 0.0 0.0 0.00 0.00 0.00 55 1016.9
20260504000751 21 118 0.0 0.0 0.00 0.00 0.00 61 1016.8
20260504000248 21 118 0.0 0.0 0.00 0.00 0.00 53 1016.6
20260503235746 22 118 0.0 0.0 0.00 0.00 0.00 56 1016.9
20260503235243 22 114 0.0 0.0 0.00 0.00 0.00 52 1016.9
20260503234741 22 114 0.0 0.0 0.00 0.00 0.00 52 1016.7
20260503234239 22 114 0.0 0.0 0.00 0.00 0.00 47 1016.8
20260503233736 22 113 0.0 0.0 0.00 0.00 0.00 46 1016.8
20260503233231 23 110 0.0 0.0 0.00 0.00 0.00 43 1017.0
20260503232728 23 121 0.0 0.0 0.00 0.00 0.00 40 1017.0
20260503232226 23 125 0.0 0.0 0.00 0.00 0.00 42 1017.1
20260503231724 23 117 0.0 1.6 0.00 0.00 0.00 41 1017.1
20260503231220 23 117 0.0 0.0 0.00 0.00 0.00 39 1017.1
20260503230716 23 103 0.0 0.0 0.00 0.00 0.00 43 1017.1
20260503230214 23 116 0.0 0.0 0.00 0.00 0.00 42 1016.9
20260503225712 23 330 4.8 4.8 0.00 0.00 0.00 39 1017.0
20260503225211 23 63 1.6 1.6 0.00 0.00 0.00 40 1017.1
20260503224709 23 65 1.6 1.6 0.00 0.00 0.00 43 1016.9
20260503224207 23 119 0.0 0.0 0.00 0.00 0.00 40 1017.2
20260503223704 23 109 1.6 1.6 0.00 0.00 0.00 42 1017.0
20260503223201 23 120 0.0 1.6 0.00 0.00 0.00 40 1017.0
20260503222658 23 124 0.0 0.0 0.00 0.00 0.00 43 1017.1
20260503222155 23 127 3.2 3.2 0.00 0.00 0.00 39 1017.3
20260503221654 23 121 0.0 0.0 0.00 0.00 0.00 39 1017.5
20260503221151 23 72 3.2 4.8 0.00 0.00 0.00 41 1017.2
20260503220647 24 67 1.6 1.6 0.00 0.00 0.00 37 1017.4
20260503220144 24 15 1.6 3.2 0.00 0.00 0.00 37 1017.5
20260503215641 23 76 0.0 1.6 0.00 0.00 0.00 39 1017.5
20260503215137 24 49 1.6 3.2 0.00 0.00 0.00 37 1017.4